Flag for U.S.A. Weather past 2 weeks in Richmond, Virginia, U.S.A.

Now
66 °F

Clear.


Feels Like: 66 °F
Forecast: 65 / 86 °F
Wind: 3 mph from Southeast

Location: Richmond International Airport

Current Time: Jul 31, 2014 at 1:30:51 AM

Latest Report: Jul 31, 2014 at 12:54 AM


Visibility: 10 mi

Pressure: 30.09 "Hg

Humidity: 81%

Dew point: 60 °F

Location of RichmondLocation

Historic Weather in Richmond — Graph

°F

Richmond temperature yesterday

Maximum temperature yesterday: 82 °F (at 3:54 PM)
Minimum temperature yesterday: 63 °F (at 6:54 AM)
Average temperature yesterday: 73 °F

Past Weeks' High & Low Weather Summary

 TemperatureHumidityPressure
High96 °F (Jul 23, 2:54 PM)96% (Jul 22, 5:54 AM)30.23 "Hg (Jul 22, 5:54 AM)
Low63 °F (Jul 30, 6:54 AM)28% (Jul 18, 2:54 PM)29.63 "Hg (Jul 28, 3:54 AM)
Average77 °F64%30.01 "Hg
* Reported Jul 15 11:54 PM — Jul 30 11:54 PM, Richmond, Weather by CustomWeather, © 2014

Note: Actual official high and low records may vary slightly from our data, if they occured in-between our weather recording intervals... More about our weather records

Advertising

Richmond weather history for previous 24 hours

 ConditionsComfort  
Time TempWeatherWind HumidityBarometerVisibility
11:54 PM
Jul 30
67 °FClear.3 mph76%30.08 "Hg10 mi
10:54 PM70 °FClear.No wind68%30.09 "Hg10 mi
9:54 PM70 °FPassing clouds.No wind68%30.09 "Hg10 mi
8:54 PM69 °FPassing clouds.6 mph70%30.07 "Hg10 mi
7:54 PM76 °FPassing clouds.5 mph54%30.06 "Hg10 mi
6:54 PM80 °FPassing clouds.5 mph36%30.06 "Hg10 mi
5:54 PM82 °FScattered clouds.8 mph34%30.05 "Hg10 mi
4:54 PM82 °FScattered clouds.8 mph35%30.06 "Hg10 mi
3:54 PM82 °FScattered clouds.7 mph34%30.06 "Hg10 mi
2:54 PM80 °FScattered clouds.8 mph36%30.08 "Hg10 mi
1:54 PM80 °FScattered clouds.3 mph35%30.09 "Hg10 mi
12:54 PM79 °FScattered clouds.3 mph36%30.10 "Hg10 mi
11:54 AM79 °FPassing clouds.3 mph36%30.11 "Hg10 mi
10:54 AM76 °FPartly sunny.No wind42%30.11 "Hg10 mi
9:54 AM74 °FPartly sunny.5 mph45%30.11 "Hg10 mi
8:54 AM71 °FScattered clouds.8 mph49%30.10 "Hg10 mi
7:54 AM67 °FPassing clouds.3 mph57%30.09 "Hg10 mi
6:54 AM63 °FPassing clouds.5 mph68%30.08 "Hg10 mi
5:54 AM64 °FPassing clouds.5 mph63%30.06 "Hg10 mi
4:54 AM65 °FPartly cloudy.3 mph61%30.05 "Hg10 mi
3:54 AM68 °FMostly cloudy.6 mph53%30.03 "Hg10 mi
2:54 AM67 °FMostly cloudy.6 mph57%30.03 "Hg10 mi
1:54 AM67 °FMostly cloudy.3 mph59%30.04 "Hg10 mi
Weather by CustomWeather, © 2014

See weather overviewHow to use our weather pages